Regional Weather Roundup
Issued by NWS Goodland, KS

Home | Current Version | Previous Version | Text Only | Print | Product List | Glossary Off
Versions: 1 2 3 4 5 6 7 8 9 10 11 12 13 14 15 16 17 18 19 20 21 22 23 24 25 26 27 28 29 30 31 32 33 34 35 36 37 38 39 40 41 42 43 44 45 46 47 48 49 50

000
ASUS43 KGLD 141159
RWRGLD

GOODLAND FORECAST AREA HOURLY WEATHER ROUNDUP
NATIONAL WEATHER SERVICE GOODLAND KS
500 AM MST THU DEC 14 2017

...OFFICIAL OBSERVATIONS...

CITY           SKY/WX    TMP DP  RH WIND       PRES   REMARKS
GOODLAND KS    CLOUDY    34  28  79 NW16      30.14R
HILL CITY KS   CLOUDY    31  22  69 W6        30.13R
IMPERIAL NEB   CLOUDY    36  29  75 W14       30.12S
MCCOOK NEB     CLOUDY    37  23  56 W12       30.11S
AKRON CO       LGT SNOW  30  27  88 NW14      30.15S FOG     WCI  19
BURLINGTON CO  CLOUDY    32  28  85 NW13      30.15S
LIMON CO       LGT SNOW  28  26  92 N21G28    30.17R FOG     WCI  15
$$

...UNOFFICIAL OBSERVATIONS...

CITY           SKY/WX    TMP DP  RH WIND       PRES   REMARKS
LENORA KS        N/A     35  32  89 CALM        N/A
NORTON KS      CLOUDY    36  19  51 W8        30.10
SHARON SPRINGS   N/A     35  28  76 NW12G20     N/A
TRENTON NEB      N/A     37  32  82 NW5         N/A
KIT CARSON CO    N/A     32  26  77 MISG        N/A
YUMA CO        MOCLDY    30  28  93 W10       30.14S
$$




USA.gov is the U.S. government's official web portal to all federal, state and local government web resources and services.